TimeEDT,TemperatureF,Dew PointF,Humidity,Sea Level PressureIn,VisibilityMPH,Wind Direction,Wind SpeedMPH,Gust SpeedMPH,PrecipitationIn,Events,Conditions,WindDirDegrees,DateUTC
12:09 AM,35.6,35.6,100,30.34,10.0,Calm,Calm,-,N/A,,Partly Cloudy,0,2012-10-09 04:09:00
12:22 AM,35.6,33.8,93,30.35,1.5,Calm,Calm,-,N/A,,Partly Cloudy,0,2012-10-09 04:22:00
12:24 AM,35.6,33.8,93,30.35,1.0,Calm,Calm,-,N/A,,Mist,0,2012-10-09 04:24:00
12:31 AM,35.6,35.6,100,30.34,1.5,Calm,Calm,-,N/A,,Partly Cloudy,0,2012-10-09 04:31:00
12:33 AM,35.6,35.6,100,30.34,4.0,Calm,Calm,-,N/A,,Partly Cloudy,0,2012-10-09 04:33:00
12:54 AM,35.1,35.1,100,30.35,9.0,Calm,Calm,-,N/A,,Clear,0,2012-10-09 04:54:00
1:05 AM,35.6,35.6,100,30.34,2.0,Calm,Calm,-,N/A,,Partly Cloudy,0,2012-10-09 05:05:00
1:07 AM,35.6,35.6,100,30.34,1.2,Calm,Calm,-,N/A,,Scattered Clouds,0,2012-10-09 05:07:00
1:09 AM,35.6,35.6,100,30.34,0.8,Calm,Calm,-,N/A,,Mist,0,2012-10-09 05:09:00
1:31 AM,33.8,33.8,100,30.34,1.5,Calm,Calm,-,N/A,,Mostly Cloudy,0,2012-10-09 05:31:00
1:33 AM,33.8,33.8,100,30.34,3.0,Calm,Calm,-,N/A,,Scattered Clouds,0,2012-10-09 05:33:00
1:42 AM,33.8,33.8,100,30.34,0.2,Calm,Calm,-,N/A,Fog,Fog,0,2012-10-09 05:42:00
1:54 AM,33.1,32.0,96,30.36,0.2,Calm,Calm,-,N/A,Fog,Fog,0,2012-10-09 05:54:00
2:25 AM,33.8,32.0,93,30.35,1.0,Calm,Calm,-,N/A,,Mist,0,2012-10-09 06:25:00
2:27 AM,33.8,32.0,93,30.35,4.0,Calm,Calm,-,N/A,,Scattered Clouds,0,2012-10-09 06:27:00
2:29 AM,33.8,32.0,93,30.35,2.0,Calm,Calm,-,N/A,,Mostly Cloudy,0,2012-10-09 06:29:00
2:31 AM,33.8,32.0,93,30.34,1.0,Calm,Calm,-,N/A,,Mist,0,2012-10-09 06:31:00
2:37 AM,33.8,32.0,93,30.34,0.2,Calm,Calm,-,N/A,Fog,Fog,0,2012-10-09 06:37:00
2:54 AM,32.0,30.9,96,30.35,0.2,Calm,Calm,-,N/A,Fog,Fog,0,2012-10-09 06:54:00
3:03 AM,32.0,32.0,100,30.34,1.0,Calm,Calm,-,N/A,,Mist,0,2012-10-09 07:03:00
3:08 AM,32.0,32.0,100,30.34,2.5,Calm,Calm,-,N/A,,Mostly Cloudy,0,2012-10-09 07:08:00
3:22 AM,32.0,30.2,93,30.34,0.2,WNW,3.5,-,N/A,Fog,Fog,290,2012-10-09 07:22:00
3:31 AM,32.0,32.0,100,30.34,1.0,Calm,Calm,-,N/A,,Mist,0,2012-10-09 07:31:00
3:42 AM,32.0,32.0,100,30.33,1.2,Calm,Calm,-,N/A,,Scattered Clouds,0,2012-10-09 07:42:00
3:54 AM,32.0,32.0,100,30.35,0.2,Calm,Calm,-,N/A,Fog,Fog,0,2012-10-09 07:54:00
4:05 AM,32.0,32.0,100,30.34,1.0,Calm,Calm,-,N/A,,Mostly Cloudy,0,2012-10-09 08:05:00
4:29 AM,33.8,33.8,100,30.34,2.0,Calm,Calm,-,N/A,,Overcast,0,2012-10-09 08:29:00
4:37 AM,33.8,33.8,100,30.34,3.0,WNW,3.5,-,N/A,,Overcast,300,2012-10-09 08:37:00
4:54 AM,35.1,35.1,100,30.36,10.0,Calm,Calm,-,N/A,,Overcast,0,2012-10-09 08:54:00
5:14 AM,35.6,35.6,100,30.35,10.0,Calm,Calm,-,0.00,,Overcast,0,2012-10-09 09:14:00
5:54 AM,37.0,37.0,100,30.36,10.0,Calm,Calm,-,0.00,,Overcast,0,2012-10-09 09:54:00
6:54 AM,37.9,37.9,100,30.36,10.0,Calm,Calm,-,N/A,,Overcast,0,2012-10-09 10:54:00
7:54 AM,39.9,39.9,100,30.38,10.0,Calm,Calm,-,N/A,,Overcast,0,2012-10-09 11:54:00
8:54 AM,45.0,41.0,86,30.36,10.0,Calm,Calm,-,0.00,,Mostly Cloudy,0,2012-10-09 12:54:00
9:06 AM,46.4,41.0,81,30.34,10.0,North,3.5,-,N/A,,Mostly Cloudy,10,2012-10-09 13:06:00
9:54 AM,48.9,41.0,74,30.35,10.0,North,5.8,-,0.00,Rain,Light Rain,350,2012-10-09 13:54:00
10:54 AM,50.0,41.0,71,30.35,10.0,Calm,Calm,-,0.00,,Overcast,0,2012-10-09 14:54:00
11:54 AM,53.1,42.1,66,30.33,10.0,Calm,Calm,-,0.00,,Overcast,0,2012-10-09 15:54:00
12:54 PM,54.0,42.1,64,30.30,10.0,NE,5.8,-,N/A,,Overcast,40,2012-10-09 16:54:00
1:54 PM,54.0,42.1,64,30.28,10.0,Variable,4.6,-,N/A,,Overcast,0,2012-10-09 17:54:00
2:54 PM,53.1,43.0,69,30.27,10.0,East,6.9,-,N/A,,Overcast,100,2012-10-09 18:54:00
3:54 PM,55.0,43.0,64,30.25,10.0,East,9.2,-,N/A,,Overcast,100,2012-10-09 19:54:00
4:54 PM,52.0,43.0,71,30.25,10.0,ESE,9.2,-,0.00,Rain,Light Rain,120,2012-10-09 20:54:00
5:54 PM,50.0,44.1,80,30.24,10.0,Calm,Calm,-,0.00,,Overcast,0,2012-10-09 21:54:00
6:23 PM,48.2,44.6,87,30.22,10.0,Calm,Calm,-,N/A,,Overcast,0,2012-10-09 22:23:00
6:54 PM,48.9,45.0,86,30.24,10.0,Calm,Calm,-,0.00,,Overcast,0,2012-10-09 22:54:00
7:54 PM,48.0,45.0,89,30.23,10.0,Calm,Calm,-,N/A,,Overcast,0,2012-10-09 23:54:00
8:02 PM,48.2,44.6,87,30.22,10.0,Calm,Calm,-,N/A,,Overcast,0,2012-10-10 00:02:00
8:54 PM,48.9,46.0,90,30.22,10.0,Calm,Calm,-,N/A,,Overcast,0,2012-10-10 00:54:00
9:54 PM,48.0,45.0,89,30.21,10.0,Calm,Calm,-,N/A,,Overcast,0,2012-10-10 01:54:00
10:06 PM,46.4,44.6,93,30.19,10.0,Calm,Calm,-,N/A,,Overcast,0,2012-10-10 02:06:00
10:37 PM,46.4,46.4,100,30.19,10.0,Calm,Calm,-,N/A,,Overcast,0,2012-10-10 02:37:00
10:54 PM,48.0,46.0,93,30.20,10.0,Calm,Calm,-,N/A,,Overcast,0,2012-10-10 02:54:00
11:54 PM,46.9,45.0,93,30.19,10.0,Calm,Calm,-,N/A,,Overcast,0,2012-10-10 03:54:00